{"data":{"norad_id":67138,"intl_designator":"2025-301F","name":"KUIPER-00183","alt_names":[],"object_type":"PAYLOAD","status":"ACTIVE","operator":null,"country":"US","launch_date":"2025-12-16","launch_site_code":"AFETR","launch_vehicle":null,"mission":null,"orbit_class":"UNKNOWN","rcs_meters":null,"size_class":null,"mass_kg":null,"dimensions":null,"purposes":[],"wikipedia_slug":null,"has_3d_model":false,"image_url":null,"decayed_at":null,"tle_current":{"epoch":"2026-09-20T23:22:49.179648Z","epoch_age_seconds":65258,"freshness":"FRESH","line1":"1 67138U 25301F   26263.97418032  .00002474  00000+0  35348-3 0  9991","line2":"2 67138  51.9006 264.6011 0000933  50.1423 309.9621 14.79926906 43064","mean_motion":14.79926906,"eccentricity":9.33e-5,"inclination_deg":51.9006,"raan_deg":264.6011,"arg_perigee_deg":50.1423,"mean_anomaly_deg":309.9621,"bstar":0.00035348,"rev_number":4306,"period_min":97.302102837774,"perigee_km":628.90104883777,"apogee_km":630.20868414005,"semimajor_km":7007.6918664889,"source":"CELESTRAK","updated_at":"2026-09-21T09:00:16.455144Z"}}}